{"data":{"norad_id":65174,"epoch":"2026-09-20T14:21:46.172448Z","epoch_age_seconds":111732,"freshness":"FRESH","line1":"1 65174U 25175A   26263.59845107  .00011802  00000+0  36729-3 0  9992","line2":"2 65174  97.2845 132.5126 0001771  86.2564 273.8882 15.33448471 62115","mean_motion":15.33448471,"eccentricity":0.0001771,"inclination_deg":97.2845,"raan_deg":132.5126,"arg_perigee_deg":86.2564,"mean_anomaly_deg":273.8882,"bstar":0.00036729,"rev_number":6211,"period_min":93.905992097729,"perigee_km":464.32083331372,"apogee_km":466.74486117361,"semimajor_km":6843.6698472437,"source":"CELESTRAK","updated_at":"2026-09-21T09:00:35.527217Z"}}